DateTimeUTC,F1_A11,F1_S11,BsB_S11,BsG_S11,BsR_S11,BbsB_S11,BbsG_S11,BbsR_S11,BaB_A11,BaG_A11,BaR_A11,Tu_S11,T_S11,Uu_S11,U_S11,P_S11,T1_A11
2021-08-15T16:00:00Z,00000200,20000000,,,,,,,0000.15,0000.09,-000.02,19.8,26.1,13.8,09.4,0674.0,31.0
2021-08-15T16:01:00Z,00000200,20000000,,,,,,,-000.26,-000.08,0000.35,19.8,26.2,13.9,09.4,0674.0,31.0
2021-08-15T16:02:00Z,00000200,20000000,,,,,,,0000.17,-000.06,-000.48,19.8,26.2,13.9,09.4,0674.0,31.0
2021-08-15T16:03:00Z,00000200,60000000,,,,,,,0000.03,0000.27,0000.21,19.8,26.2,13.9,09.4,0674.0,31.0
2021-08-15T16:04:00Z,00000200,40000000,0001.46,0001.38,0000.66,-000.03,0000.29,0000.19,0000.33,-000.11,0000.21,20.0,26.0,13.6,09.4,0674.9,31.0
2021-08-15T16:05:00Z,00000200,00000000,0001.17,0001.18,0000.36,-000.15,0000.29,0000.26,0000.07,0000.50,-000.03,20.0,26.0,13.5,09.4,0674.9,31.0
2021-08-15T16:06:00Z,00000200,00000000,0001.60,0001.27,0000.69,0000.22,0000.06,0000.02,0000.36,0000.09,0000.26,20.0,26.0,13.4,09.3,0674.9,31.0
2021-08-15T16:07:00Z,00000200,00000000,0001.62,0001.60,0000.81,-000.08,0000.10,0000.39,0000.25,0000.08,-000.01,20.0,26.0,13.4,09.4,0674.9,31.0
2021-08-15T16:08:00Z,00000200,00000000,0001.37,0001.19,0000.59,0000.40,0000.11,0000.42,0000.12,0000.18,0000.52,20.0,26.0,13.2,09.3,0674.9,31.0
2021-08-15T16:09:00Z,00000200,00000000,0002.03,0001.65,0000.91,0000.25,0000.11,-000.12,0000.80,0000.30,0000.01,20.0,26.0,13.3,09.3,0674.9,31.0
2021-08-15T16:10:00Z,00000200,00000000,0003.09,0001.54,0000.86,0000.38,0000.36,0000.38,0000.41,0000.77,0000.50,20.1,26.0,13.3,09.3,0674.9,31.0
2021-08-15T16:11:00Z,00000200,00000000,0001.80,0001.44,0000.46,0000.06,0000.16,-000.15,0000.09,0000.08,0000.06,20.0,26.0,13.4,09.4,0674.9,31.0
2021-08-15T16:12:00Z,00000200,00000000,0001.74,0001.63,0000.71,0000.15,0000.39,-000.04,0000.75,0000.56,0000.66,20.0,26.0,13.4,09.4,0674.9,31.0
2021-08-15T16:13:00Z,00000200,00000000,0001.60,0001.42,0000.63,0000.33,0000.33,-000.03,0000.48,0000.53,0000.36,20.1,26.0,13.4,09.4,0674.9,31.0
2021-08-15T16:14:00Z,00000200,00000000,0001.88,0001.68,0000.84,0000.40,0000.43,0000.30,-000.01,0000.07,0000.13,20.0,26.0,13.4,09.4,0674.9,31.0
2021-08-15T16:15:00Z,00000200,00000000,0002.00,0001.65,0000.68,-000.18,0000.42,0000.10,0000.73,0000.48,0000.13,20.1,26.0,13.4,09.4,0674.9,31.0
2021-08-15T16:16:00Z,00000200,00000000,0002.40,0001.78,0000.88,0000.31,0000.22,0000.40,0000.49,0000.97,0000.82,20.1,26.0,13.4,09.4,0674.9,31.0
2021-08-15T16:17:00Z,00000200,00000000,0002.75,0002.42,0001.25,0001.16,0000.42,0000.24,0000.58,0000.31,0000.24,20.1,26.0,13.4,09.4,0674.9,31.0
2021-08-15T16:18:00Z,00000200,00000000,0002.96,0002.23,0001.14,-000.73,0000.47,0000.23,0000.47,0000.00,0000.08,20.1,26.0,13.3,09.3,0674.9,31.0
2021-08-15T16:19:00Z,00000200,00000000,0002.69,0002.73,0001.11,-000.53,0000.57,0000.04,0000.39,0000.87,0000.89,20.1,26.0,13.3,09.3,0674.9,31.0
2021-08-15T16:20:00Z,00000200,00000000,0002.84,0002.34,0001.44,0000.51,0000.37,0000.33,0000.55,0000.43,0000.07,20.1,25.9,13.2,09.2,0674.9,31.0
2021-08-15T16:21:00Z,00000200,00000000,0003.29,0002.50,0001.05,0000.29,0000.31,0000.15,0000.95,0000.81,0000.81,20.1,26.0,13.3,09.3,0674.9,31.0
2021-08-15T16:22:00Z,00000200,00000000,0002.21,0002.28,0001.28,0000.55,0000.65,0000.52,0000.50,0000.59,0000.19,20.1,26.0,13.3,09.3,0674.9,31.0
2021-08-15T16:23:00Z,00000200,00000000,0002.66,0002.60,0001.11,0000.30,0000.29,-000.14,0000.57,0000.39,0000.53,20.1,26.0,13.2,09.3,0674.9,31.0
2021-08-15T16:24:00Z,00000200,00000000,0003.23,0002.76,0001.33,0000.23,0000.42,0000.29,0000.37,0000.67,0000.18,20.1,26.0,13.2,09.2,0674.9,31.0
2021-08-15T16:25:00Z,00000200,00000000,0002.94,0003.16,0001.41,-000.27,0000.43,0000.09,0000.65,0000.67,0000.85,20.1,26.0,13.0,09.1,0674.9,31.0
2021-08-15T16:26:00Z,00000200,00000000,0003.86,0003.04,0001.98,0001.02,0000.42,0000.32,0000.86,0000.37,0000.36,20.1,26.0,13.0,09.1,0674.9,31.0
2021-08-15T16:27:00Z,00000200,00000000,0004.58,0003.19,0001.81,0000.51,0000.42,0000.17,0000.47,0000.58,0000.37,20.1,26.0,12.8,09.0,0674.9,31.0
2021-08-15T16:28:00Z,00000200,00000000,0003.80,0003.36,0001.83,0000.35,0000.83,0000.51,0000.67,0000.96,0000.90,20.1,26.0,12.8,09.0,0674.9,31.0
2021-08-15T16:29:00Z,00000200,00000000,0004.41,0003.32,0002.07,0000.66,0000.53,0000.45,0001.43,0000.98,0000.81,20.1,26.0,12.7,08.9,0674.9,31.0
2021-08-15T16:30:00Z,00000200,00000000,0003.75,0003.26,0002.08,0000.38,0000.50,0000.27,0000.76,0000.79,0000.71,20.1,26.0,12.8,09.0,0674.9,31.0
2021-08-15T16:31:00Z,00000200,00000000,0003.62,0003.48,0002.34,0000.55,0000.49,0000.50,0001.39,0000.92,0000.72,20.1,26.0,12.9,09.1,0675.0,31.0
2021-08-15T16:32:00Z,00000200,00000000,0003.96,0003.50,0002.00,0000.42,0000.25,0000.16,0000.68,0000.97,0000.76,20.1,26.0,12.9,09.0,0674.9,31.0
2021-08-15T16:33:00Z,00000200,00000000,0003.78,0003.82,0001.88,0000.41,0000.69,0000.49,0001.43,0000.99,0000.88,20.1,26.0,13.0,09.1,0674.9,31.0
2021-08-15T16:34:00Z,00000200,00000000,0004.18,0002.97,0001.86,-000.21,0000.18,0000.15,0000.58,0000.91,0000.81,20.1,26.0,12.9,09.0,0675.0,31.0
2021-08-15T16:35:00Z,00000200,00000000,0004.28,0003.12,0001.78,0000.78,0000.36,0000.39,0001.15,0000.91,0000.57,20.1,26.0,13.1,09.2,0675.0,31.0
2021-08-15T16:36:00Z,00000200,00000000,0003.64,0002.96,0002.22,0000.00,0000.25,0000.40,0000.47,0000.62,0000.58,20.1,25.9,13.2,09.2,0674.9,31.0
2021-08-15T16:37:00Z,00000200,00000000,0003.73,0002.98,0001.78,0000.80,0000.34,0000.34,0001.38,0000.87,0000.63,20.1,26.0,13.1,09.2,0674.9,31.0
2021-08-15T16:38:00Z,00000200,00000000,0003.25,0003.23,0001.70,0000.47,0000.59,0000.49,0000.58,0000.89,0000.64,20.1,26.0,13.2,09.2,0674.9,31.0
2021-08-15T16:39:00Z,00000200,00000000,0003.23,0003.13,0001.92,0000.98,0000.52,0000.29,0000.79,0000.55,0000.50,20.1,26.0,13.1,09.2,0674.9,31.0
2021-08-15T16:40:00Z,00000200,00000000,0003.73,0002.91,0001.86,0001.07,0000.50,0000.59,0000.80,0001.29,0000.96,20.1,26.0,13.2,09.3,0675.0,31.0
2021-08-15T16:41:00Z,00000200,00000000,0003.29,0003.18,0002.00,0000.10,0000.27,0000.25,0000.63,0000.47,0000.63,20.1,26.0,13.2,09.3,0675.0,31.0
2021-08-15T16:42:00Z,00000200,00000000,0003.37,0003.00,0001.84,-000.37,0000.23,0000.43,0000.83,0000.94,0000.56,20.1,26.0,13.2,09.3,0675.0,31.0
2021-08-15T16:43:00Z,00000200,00000000,0004.14,0003.19,0002.00,-000.03,0000.51,0000.63,0001.13,0000.73,0000.61,20.1,26.0,13.1,09.2,0675.0,31.0
2021-08-15T16:44:00Z,00000200,00000000,0004.07,0002.71,0002.04,0000.49,0000.44,0000.54,0000.86,0000.71,0000.31,20.1,26.0,13.2,09.3,0675.0,31.0
2021-08-15T16:45:00Z,00000200,00000000,0003.14,0002.96,0001.60,0000.51,0000.26,0000.10,0000.60,0000.53,0000.78,20.1,26.0,13.1,09.2,0675.0,31.0
2021-08-15T16:46:00Z,00000200,00000000,0004.19,0003.05,0001.93,0000.50,0000.65,0000.23,0000.82,0000.66,0000.49,20.1,26.0,13.0,09.2,0675.0,31.0
2021-08-15T16:47:00Z,00000200,00000000,0003.11,0002.58,0001.66,0000.26,0000.08,0000.16,0000.72,0000.84,0000.74,20.1,26.0,13.0,09.2,0675.0,31.0
2021-08-15T16:48:00Z,00000200,00000000,0002.91,0003.45,0001.29,-000.36,0000.36,0000.21,0000.51,0000.36,0000.45,20.1,26.0,13.0,09.1,0675.0,31.0
2021-08-15T16:49:00Z,00000200,00000000,0002.80,0003.01,0001.56,0000.64,0000.41,0000.30,0000.97,0000.67,0000.54,20.1,26.0,13.0,09.1,0675.0,31.0
2021-08-15T16:50:00Z,00000200,00000000,0003.20,0002.92,0001.79,0000.92,0000.37,0000.38,0000.75,0000.99,0000.80,20.1,26.0,13.0,09.1,0675.0,31.0
2021-08-15T16:51:00Z,00000200,00000000,0002.50,0002.72,0001.40,-000.02,0000.71,0000.07,0000.70,0000.43,0000.45,20.1,26.0,13.0,09.1,0675.0,31.0
2021-08-15T16:52:00Z,00000200,00000000,0002.86,0002.18,0001.45,0000.40,0000.40,0000.27,0000.18,0000.76,0000.30,20.1,25.9,13.0,09.1,0675.0,31.0
2021-08-15T16:53:00Z,00000200,00000000,0003.27,0002.52,0001.36,0000.05,0000.62,0000.26,0001.06,0000.66,0000.62,20.1,25.9,13.1,09.2,0675.0,31.0
2021-08-15T16:54:00Z,00000200,00000000,0002.42,0002.71,0001.00,0000.76,0000.58,0000.10,0000.88,0000.46,0000.71,20.1,25.9,13.1,09.2,0675.0,31.0
2021-08-15T16:55:00Z,00000200,00000000,0003.01,0002.19,0001.06,0000.28,0000.19,0000.18,0000.32,0000.52,0000.49,20.1,25.9,13.1,09.2,0675.0,31.0
2021-08-15T16:56:00Z,00000200,00000000,0002.89,0002.23,0000.73,0000.66,0000.16,0000.31,0000.58,0000.91,0000.20,20.1,25.9,13.1,09.2,0675.0,31.0
2021-08-15T16:57:00Z,00000200,40000000,,,,,,,0000.21,-000.01,0000.26,20.1,25.9,13.6,09.6,0674.9,31.0
2021-08-15T16:58:00Z,00000200,60000000,,,,,,,0000.07,0000.19,-000.10,19.9,26.0,13.1,09.0,0674.0,31.0
2021-08-15T16:59:00Z,00000200,20000000,,,,,,,-000.25,-000.10,0000.13,19.9,26.1,13.1,09.0,0674.0,31.0
